Location: Clarion
(42.7316°N, 93.7330°W)
Time: 02:30:54
(UTC+00:00)

Cosmos 858 Rocket - Pass Details

Date: 22 April 2026
Orbit: 752 x 769 km, 74.1° (Epoch: 20 May)

Event Time Altitude Azimuth Distance (km) Brightness Sun altitude
Rises 10:32:36 0° 337° (NNW) 3,222 7.8 -9.3°
Reaches altitude 10° 10:34:59 10° 336° (NNW) 2,291 7.0 -8.9°
Maximum altitude 10:40:08 72° 253° (WSW) 793 4.4 -8.0°
Drops below altitude 10° 10:45:16 10° 169° (S) 2,267 6.8 -7.2°
Sets 10:47:37 0° 168° (SSE) 3,187 7.6 -6.8°
